[[{"header":{"parameterUnit":"m.s-1","parameterCategory":1,"la1":30.2991,"la2":30.254,"lo1":-89.0895,"lo2":-89.0444,"dy":0.0017,"dx":0.0017,"nx":28,"ny":28,"refTime":"2023-09-10T21:00:00:Z","depth":0,"parameterNumber":2,"parameterNumberName":"U-component_of_WINDS"},"data":[0,0,0,0,0,0,0,0,0,0,0,0,0,0,0,0,0,0,0,0,0,0,0,0,0,0,0,0,0,0,0,0,0,0,0,0,0,0,0,0,0,0,0,0,0,0,0,0,0,0,0,0,0,0,0,0,0,0,-1.0985,-1.0985,0,-1.0927,-1.0926,-1.0926,-1.0887,-1.0887,-1.0887,-1.0887,-1.0826,-1.0825,-1.0824,0,0,0,0,0,0,0,0,0,0,0,0,0,-1.1063,-1.1062,-1.0985,-1.0985,-1.0984,-1.0927,-1.0926,-1.0925,-1.0887,-1.0887,-1.0887,-1.0887,-1.0827,-1.0825,-1.0824,0,0,0,0,0,0,0,0,0,0,0,0,0,-1.102,-1.1062,-1.0985,-1.0958,-1.0955,-1.0927,-1.0926,-1.0925,-1.0888,-1.0887,-1.0887,-1.0886,-1.0827,-1.0825,-1.0823,-1.0818,0,0,-1.0817,-1.0816,0,0,0,0,0,0,0,0,-1.1022,-1.1017,-1.0963,-1.096,-1.0956,-1.0914,-1.0932,-1.0889,-1.0888,-1.0913,-1.0887,-1.0886,-1.0856,-1.0851,-1.0841,-1.0815,-1.0813,-1.0817,-1.0816,-1.0815,-1.0814,0,0,0,0,0,0,0,-1.1025,-1.1019,-1.0962,-1.0962,-1.0958,-1.0949,-1.0942,-1.0923,-1.0887,-1.0911,-1.0908,-1.0902,-1.0854,-1.0843,-1.084,-1.0812,-1.0817,-1.0815,-1.0814,-1.0813,-1.0779,-1.0779,0,0,0,0,0,0,-1.1033,-1.1022,-1.0964,-1.096,-1.0989,-1.0948,-1.094,-1.0928,-1.0887,-1.0881,-1.0902,-1.09,-1.0847,-1.0842,-1.0837,-1.0828,-1.0815,-1.0813,-1.0812,-1.0778,-1.0779,-1.0779,0,0,0,0,0,0,-1.1035,-1.1028,-1.0966,-1.099,-1.0982,-1.0947,-1.0933,-1.0927,-1.0916,-1.0881,-1.0874,-1.0898,-1.0847,-1.084,-1.0823,-1.0826,-1.0812,-1.081,-1.0778,-1.0778,-1.0779,-1.081,0,0,0,0,0,0,-1.1037,-1.1029,-1.1026,-1.0991,-1.0981,-1.0953,-1.0933,-1.0926,-1.0913,-1.091,-1.0875,-1.0869,-1.0846,-1.0827,-1.0821,-1.0823,-1.0808,-1.0777,-1.0778,-1.0779,-1.0809,-1.0812,-1.0815,0,0,0,0,0,-1.104,-1.1038,-1.1027,-1.102,-1.0977,-1.0954,-1.0948,-1.0922,-1.0913,-1.0911,-1.0888,-1.087,-1.0827,-1.0825,-1.0819,-1.082,-1.0777,-1.0778,-1.0779,-1.0808,-1.0811,-1.0814,0,0,0,0,0,0,-1.1074,-1.1032,-1.102,-1.1006,-1.0984,-1.0947,-1.0943,-1.0926,-1.0906,-1.0904,-1.0872,-1.0865,-1.0851,-1.0833,-1.0833,-1.0812,-1.08,-1.0799,-1.0824,-1.0827,-1.083,-1.0834,-1.0807,0,0,0,0,0,-1.108,-1.1065,-1.1029,-1.102,-1.101,-1.0979,-1.0967,-1.0949,-1.0925,-1.0915,-1.0891,-1.0868,-1.0849,-1.0837,-1.0818,-1.0807,-1.0798,-1.0804,-1.0807,-1.0809,-1.0809,-1.0802,-1.0804,-1.0781,-1.0781,-1.0781,0,0,-1.1093,-1.1068,-1.106,-1.1027,-1.1007,-1.0992,-1.0971,-1.0955,-1.0944,-1.0913,-1.0895,-1.0877,-1.0849,-1.0835,-1.0827,-1.082,-1.0814,-1.081,-1.0812,-1.0811,-1.0803,-1.0805,-1.0807,-1.0782,-1.0782,-1.0782,0,0,-1.1107,-1.1087,-1.1077,-1.1058,-1.1029,-1.1008,-1.1006,-1.0973,-1.0959,-1.0941,-1.0918,-1.0903,-1.0872,-1.0853,-1.0839,-1.0847,-1.083,-1.0842,-1.0856,-1.0849,-1.0851,-1.0852,-1.0855,-1.0856,-1.0842,-1.0842,-1.0842,0,-1.1125,-1.1101,-1.1074,-1.106,-1.1046,-1.1018,-1.1008,-1.0991,-1.0957,-1.0948,-1.0941,-1.09,-1.088,-1.0861,-1.0863,-1.0853,-1.0849,-1.0845,-1.0853,-1.0854,-1.0855,-1.0857,-1.0858,-1.0843,-1.0843,-1.0843,-1.0843,0,-1.1126,-1.111,-1.1105,-1.1074,-1.1059,-1.1047,-1.1018,-1.1007,-1.099,-1.097,-1.0952,-1.0927,-1.0902,-1.0896,-1.088,-1.0875,-1.0871,-1.0859,-1.0845,-1.0859,-1.086,-1.0861,-1.0846,-1.0845,-1.0844,-1.0844,0,0,-1.116,-1.1113,-1.1112,-1.1097,-1.1064,-1.1051,-1.1038,-1.1013,-1.1004,-1.0982,-1.097,-1.0945,-1.0933,-1.0917,-1.0898,-1.0893,-1.09,-1.0881,-1.0879,-1.0885,-1.0894,-1.0903,-1.0904,-1.0889,-1.0889,-1.0889,-1.0896,0,-1.1168,-1.1143,-1.1119,-1.1102,-1.1087,-1.106,-1.1049,-1.1027,-1.1008,-1.0993,-1.0972,-1.0954,-1.094,-1.093,-1.0923,-1.0901,-1.0902,-1.09,-1.0877,-1.0877,-1.0885,-1.0905,-1.0915,-1.0922,-1.0896,-1.0896,-1.0896,0,-1.1175,-1.1155,-1.1137,-1.1105,-1.1098,-1.1088,-1.1064,-1.1049,-1.1024,-1.1011,-1.0994,-1.0974,-1.0959,-1.0948,-1.0926,-1.0926,-1.0915,-1.0903,-1.0903,-1.0899,-1.0887,-1.0902,-1.0924,-1.0925,-1.0897,-1.0897,-1.0897,0,-1.1202,-1.1169,-1.1155,-1.1143,-1.1105,-1.1099,-1.1083,-1.1057,-1.1044,-1.1024,-1.1015,-1.0993,-1.098,-1.0963,-1.0938,-1.0932,-1.0919,-1.0906,-1.0908,-1.0909,-1.0906,-1.0906,-1.0927,-1.09,-1.09,-1.09,-1.09,0,-1.1214,-1.1204,-1.1166,-1.1157,-1.1145,-1.1117,-1.1106,-1.1088,-1.1065,-1.1052,-1.1028,-1.1016,-1.0983,-1.0968,-1.0948,-1.0933,-1.0928,-1.0917,-1.0911,-1.0919,-1.092,-1.0911,-1.0909,-1.09,-1.09,-1.09,-1.09,0,-1.1241,-1.1215,-1.1197,-1.1163,-1.1154,-1.1147,-1.1118,-1.1108,-1.1088,-1.1072,-1.1066,-1.1035,-1.1015,-1.0989,-1.0961,-1.0947,-1.0935,-1.0927,-1.0944,-1.0941,-1.0944,-1.0944,-1.0958,-1.0959,-1.0933,-1.0933,-1.0933,0,-1.1251,-1.1242,-1.1207,-1.1197,-1.1182,-1.1165,-1.1152,-1.1124,-1.1111,-1.1082,-1.1076,-1.1054,-1.1035,-1.1005,-1.098,-1.0959,-1.095,-1.0956,-1.0946,-1.0954,-1.0949,-1.095,-1.0949,-1.0959,-1.0959,-1.0959,-1.096,0,-1.127,-1.1258,-1.124,-1.1217,-1.1202,-1.1183,-1.1163,-1.1155,-1.1123,-1.111,-1.109,-1.1075,-1.1047,-1.1026,-1.1001,-1.0984,-1.0967,-1.0963,-1.0962,-1.0969,-1.0979,-1.0974,-1.095,-1.0963,-1.0963,-1.0962,-1.0962,-1.0962,-1.1288,-1.128,-1.1254,-1.1235,-1.1216,-1.1198,-1.1187,-1.1166,-1.1149,-1.1123,-1.1108,-1.1088,-1.1063,-1.1028,-1.1013,-1.0997,-1.099,-1.0989,-1.0988,-1.0989,-1.0991,-1.0982,-1.0992,-1.0992,-1.0992,-1.0992,-1.0992,0,-1.1307,-1.1289,-1.1271,-1.1244,-1.1228,-1.1213,-1.119,-1.1178,-1.1161,-1.114,-1.1122,-1.1099,-1.1078,-1.1052,-1.1029,-1.1022,-1.1013,-1.1017,-1.1017,-1.1013,-1.0999,-1.1001,-1.1024,-1.1024,-1.1024,-1.1024,-1.1024,-1.1024,-1.1314,-1.1299,-1.1284,-1.1259,-1.1241,-1.1222,-1.121,-1.1193,-1.1175,-1.115,-1.1133,-1.1116,-1.1092,-1.1068,-1.1049,-1.1042,-1.1034,-1.1041,-1.1031,-1.1017,-1.1014,-1.1012,-1.1014,-1.1039,-1.1039,-1.1047,-1.1047,-1.1047]},{"header":{"parameterUnit":"m.s-1","parameterCategory":1,"la1":30.2991,"la2":30.254,"lo1":-89.0895,"lo2":-89.0444,"dy":0.0017,"dx":0.0017,"nx":28,"ny":28,"refTime":"2023-09-10T21:00:00:Z","depth":0,"parameterNumber":3,"parameterNumberName":"V-component_of_WINDS"},"data":[0,0,0,0,0,0,0,0,0,0,0,0,0,0,0,0,0,0,0,0,0,0,0,0,0,0,0,0,0,0,0,0,0,0,0,0,0,0,0,0,0,0,0,0,0,0,0,0,0,0,0,0,0,0,0,0,0,0,3.9608,3.9608,0,3.9587,3.9587,3.9587,3.9545,3.9544,3.9543,3.9543,3.9522,3.9522,3.9522,0,0,0,0,0,0,0,0,0,0,0,0,0,3.9614,3.9615,3.9608,3.9608,3.9608,3.9587,3.9587,3.9586,3.9545,3.9544,3.9543,3.9542,3.9522,3.9522,3.9522,0,0,0,0,0,0,0,0,0,0,0,0,0,3.9604,3.9615,3.9608,3.9585,3.9582,3.9587,3.9587,3.9586,3.9545,3.9544,3.9543,3.9542,3.9521,3.9522,3.9522,3.9548,0,0,3.9523,3.9523,0,0,0,0,0,0,0,0,3.9605,3.9604,3.9589,3.9586,3.9584,3.9567,3.9581,3.9574,3.9546,3.956,3.9543,3.9541,3.9538,3.9537,3.9535,3.9547,3.9546,3.9523,3.9523,3.9523,3.9523,0,0,0,0,0,0,0,3.9606,3.9605,3.96,3.9588,3.9585,3.9576,3.9573,3.958,3.9556,3.9558,3.9555,3.9553,3.9536,3.9535,3.9535,3.9546,3.9523,3.9523,3.9523,3.9524,3.9578,3.9579,0,0,0,0,0,0,3.961,3.9606,3.9601,3.9599,3.9592,3.9576,3.9573,3.9574,3.9556,3.9552,3.9554,3.9551,3.9535,3.9534,3.9534,3.9563,3.9523,3.9524,3.9524,3.9577,3.9578,3.958,0,0,0,0,0,0,3.961,3.961,3.9601,3.9602,3.96,3.9578,3.9579,3.9574,3.9573,3.9553,3.9548,3.9557,3.9534,3.9533,3.9545,3.9561,3.9524,3.9524,3.9575,3.9577,3.9579,3.9621,0,0,0,0,0,0,3.961,3.961,3.9619,3.9602,3.96,3.9613,3.958,3.9575,3.9573,3.9569,3.9554,3.9551,3.9533,3.9545,3.9545,3.9561,3.9524,3.9574,3.9576,3.9578,3.9618,3.9624,3.9629,0,0,0,0,0,3.9611,3.9632,3.962,3.962,3.9611,3.9614,3.9613,3.9592,3.9575,3.9584,3.9571,3.9551,3.956,3.9546,3.9546,3.9563,3.9573,3.9576,3.9578,3.9616,3.9623,3.9629,0,0,0,0,0,0,3.9652,3.963,3.9616,3.9633,3.9625,3.9607,3.9618,3.96,3.9598,3.9594,3.9569,3.9566,3.9581,3.9573,3.9558,3.9587,3.9563,3.9566,3.9591,3.9598,3.9604,3.9605,3.9524,0,0,0,0,0,3.9664,3.9667,3.9647,3.9664,3.9661,3.964,3.9641,3.9625,3.9617,3.9614,3.9602,3.9594,3.9595,3.9597,3.9596,3.9617,3.9613,3.9629,3.9634,3.9639,3.9642,3.9652,3.9658,3.9589,3.9589,3.9589,0,0,3.9687,3.9675,3.9678,3.9672,3.9665,3.9669,3.9638,3.9644,3.9647,3.9615,3.9624,3.9616,3.9606,3.9622,3.9629,3.9616,3.966,3.9643,3.9647,3.9647,3.9655,3.9662,3.9668,3.9591,3.9591,3.959,0,0,3.973,3.9722,3.9735,3.9728,3.9717,3.9703,3.9707,3.9691,3.9683,3.9693,3.9669,3.9672,3.9675,3.9668,3.9666,3.9708,3.9689,3.9709,3.9738,3.9748,3.9754,3.9758,3.9772,3.9778,3.9712,3.9712,3.9712,0,3.976,3.9765,3.9743,3.9751,3.9749,3.972,3.9732,3.9727,3.9717,3.9716,3.9703,3.9705,3.9697,3.9711,3.9721,3.972,3.9723,3.971,3.9755,3.9759,3.9763,3.9776,3.9782,3.9714,3.9714,3.9714,3.9714,0,3.9802,3.9807,3.9818,3.9809,3.9808,3.9818,3.9798,3.98,3.9785,3.9773,3.9783,3.9772,3.9769,3.9772,3.9757,3.9784,3.9776,3.9759,3.9734,3.9772,3.9784,3.9789,3.9718,3.9717,3.9716,3.9716,0,0,3.9871,3.9849,3.9854,3.9849,3.9836,3.9838,3.9848,3.9844,3.9846,3.9841,3.9847,3.9851,3.9834,3.9831,3.9816,3.9825,3.9859,3.9807,3.9806,3.9816,3.9886,3.9899,3.9905,3.9847,3.9848,3.9848,3.9887,0,3.9911,3.9924,3.9905,3.9923,3.9926,3.9899,3.9907,3.99,3.9889,3.9891,3.9879,3.9881,3.986,3.9858,3.9866,3.9853,3.9872,3.985,3.9852,3.9853,3.9854,3.9911,3.9924,3.9961,3.9892,3.9892,3.9893,0,3.9959,3.9955,3.9973,3.9958,3.9959,3.9967,3.9962,3.9964,3.9955,3.9947,3.9944,3.9926,3.9934,3.9911,3.9921,3.9907,3.9906,3.9901,3.9902,3.99,3.9874,3.991,3.9972,3.9978,3.99,3.99,3.9899,0,4.0006,4.0005,4.0016,4.0013,3.9996,4.0002,3.9995,3.9985,3.9985,3.9981,3.998,3.9978,3.9977,3.9975,3.9957,3.9942,3.997,3.9945,3.9962,3.9963,3.9968,3.9968,4.003,3.997,3.997,3.997,3.997,0,4.0051,4.0063,4.0037,4.0043,4.0056,4.0034,4.0048,4.0038,4.003,4.0034,4.0011,4.0016,3.9992,3.9995,3.9981,3.9991,3.9991,3.9984,3.998,3.9985,3.9986,3.9984,3.9981,3.9972,3.9971,3.9971,3.9971,0,4.0105,4.0088,4.0098,4.0081,4.0077,4.0087,4.0073,4.0079,4.0067,4.0073,4.0073,4.0054,4.0055,4.0037,4.0035,4.0026,4.0042,4.0035,4.0045,4.0042,4.006,4.0058,4.0122,4.0129,4.0066,4.0067,4.0067,0,4.0135,4.0143,4.0128,4.0129,4.0123,4.0126,4.0125,4.0104,4.0104,4.0095,4.0102,4.0101,4.0099,4.0103,4.0089,4.0088,4.0079,4.0101,4.0078,4.0083,4.0078,4.0077,4.0077,4.0106,4.0106,4.0107,4.0108,0,4.0189,4.018,4.018,4.0177,4.0176,4.0173,4.0168,4.017,4.0148,4.0149,4.015,4.0149,4.0147,4.0146,4.0142,4.0135,4.0118,4.0115,4.0119,4.0124,4.0129,4.0125,4.0057,4.0113,4.0113,4.0112,4.0112,4.0112,4.0231,4.0237,4.0227,4.0228,4.0222,4.0218,4.0222,4.021,4.0211,4.0207,4.0195,4.0198,4.0189,4.0182,4.0177,4.0179,4.0168,4.0174,4.0175,4.0176,4.0179,4.013,4.0178,4.0178,4.0178,4.0178,4.0178,0,4.0283,4.0276,4.0276,4.027,4.027,4.0254,4.0248,4.0249,4.0252,4.0245,4.0244,4.0245,4.0245,4.0231,4.0229,4.0234,4.0225,4.0234,4.0233,4.0231,4.0189,4.0186,4.024,4.024,4.024,4.024,4.024,4.024,4.0311,4.032,4.031,4.0317,4.0309,4.0311,4.0309,4.0305,4.03,4.0302,4.0301,4.0293,4.0283,4.028,4.0279,4.0275,4.0275,4.0286,4.0279,4.024,4.0234,4.0228,4.0225,4.0286,4.0287,4.0321,4.0321,4.0321]}]]